Tracking 35030 objects as of 11-Aug-2026
HD Live streaming from Space Station
objects crossing your sky now

LEMUR 2 OSCARLATOR


LEMUR 2 OSCARLATOR is no longer on orbit
LEMUR 2 OSCARLATOR is classified as:


NORAD ID: 46299
Int'l Code: 2020-061AD
Launch date: September 3, 2020
Source: United States (US)
Launch site: FRENCH GUIANA (FRGUI)
Decay date: 2024-01-27
Your satellite tracking list
Your tracking list is empty




NASA's NSSDC Master Catalog

Two Line Element Set (TLE):
1 46299U 20061AD  24025.49176863  .08983262  24572-5  13303-2 0  9991
2 46299  97.3579 115.4024 0008173 291.0020  69.0402 16.34450270188901
Source of the keplerian elements: AFSPC